1st Responders/1st Detectors/Storm Spotters Weather Summary for Jackson County, KY

Forecast Maps


Reg. NEXRAD Animation


National Fire Danger: Day 1 & 2 Map

Current NWS Watch/Warnings

SPC Convective Day 1 Outlook


Day 2 Outlook

(Click images to enlarge|Page will refresh every 5 minutes)
UK Ag. Weather Center Desktop Severe Weather Service[HERE]
Jackson County, KY Hazardous Weather Outlook Webcast
(9 AM to 9 PM Mon-Fri)
[Fast]
[Dial-up]


UKAWC 1st Detectors/1st Responders Precision Weather Forecast For JACKSON County, Kentucky
(based on the NWS County Digital Forecast)

ISSUED AT 21:00 UTC ON MONDAY AUG 03 2020
DAY MONDAY
EDT 3HR 6P 7P
MAX/MIN -- 83°
TEMP 81° 79°
SKY COVER 45% 48%
Clouds
DEW PT 61° 63°
RH 50% 56%
POP 12HR -- --
RAIN/SNOW (liq.equ) -- --
SNOWFALL -- --
WIND SPEED(MPH) 5 2
WIND Gust(MPH) 7 7
WIND DIR W NW
DEW -- --
HeatIndex 82 81
Rain Showers Slight Chance Slight Chance
Thunder Storm Slight Chance Slight Chance
Fog -- --
WIND CHILL -- --
SPRAY COND
DRY COND
LIVESTOCK HEATSTRESS 74.89 74.11



DAY TUESDAY WEDNESDAY THURSDAY FRIDAY SATURDAY SUNDAY
EDT 6HR 8P 9P 10P 11P MIDN 1A 2A 3A 4A 5A 6A 7A 8A 9A 10A 11A NOON 1P 2P 3P 4P 5P 6P 7P 8P 9P 10P 11P MIDN 1A 2A 3A 4A 5A 8A 11A 2P 5P 8P 2A 8A 2P 8P 2A 8A 2P 8P 2A 8A 2P 8P 2A 8A 2P 8P
MAX/MIN -- -- -- -- -- -- -- -- -- -- -- -- 61° -- -- -- -- -- -- -- -- -- -- 79° -- -- -- -- -- -- -- -- -- -- 61° -- -- 81° -- -- 59° 83° -- -- 61° 85° -- -- 63° 86° -- -- 65° 86° --
TEMP 76° 72° 70° 67° 65° 63° 63° 63° 63° 61° 61° 61° 63° 67° 70° 74° 76° 77° 79° 79° 79° 79° 79° 76° 74° 70° 68° 65° 65° 63° 63° 61° 61° 61° 61° 70° 77° 81° 77° 63° 63° 79° 76° 65° 65° 83° 79° 67° 67° 83° 79° 68° 70° 83° 79°
SKY COVER 49% 44% 37% 33% 35% 40% 46% 49% 52% 56% 63% 68% 71% 68% 62% 56% 53% 51% 50% 51% 52% 53% 49% 44% 42% 43% 47% 52% 54% 56% 58% 59% 60% 60% 55% 59% 52% 49% 35% 27% 37% 32% 19% 12% 11% 27% 21% 27% 32% 35% 38% 42% 42% 50% 52%
Clouds
DEW PT 65° 65° 65° 65° 65° 63° 63° 63° 63° 61° 61° 61° 63° 65° 65° 67° 67° 65° 67° 67° 67° 67° 67° 67° 67° 67° 65° 65° 65° 63° 63° 61° 61° 61° 61° 65° 65° 65° 63° 61° 61° 63° 63° 63° 63° 65° 65° 65° 65° 65° 67° 67° 67° 68° 70°
RH 66% 76% 83% 93% 99% 100% 100% 100% 100% 99% 100% 99% 99% 96% 83% 76% 71% 66% 66% 64% 64% 64% 66% 70% 78% 86% 90% 100% 99% 100% 99% 100% 99% 100% 99% 84% 64% 58% 61% 89% 93% 57% 66% 93% 92% 54% 64% 93% 92% 55% 69% 93% 93% 61% 71%
POP 12HR 24% -- -- -- -- -- -- -- -- -- -- -- 23% -- -- -- -- -- -- -- -- -- -- -- 37% -- -- -- -- -- -- -- -- -- 15% -- -- -- 19% -- 5% -- 13% -- 7% -- 17% -- 15% -- 22% -- 22% -- 40%
RAIN/SNOW (liq.equ) 0.00in -- -- -- -- -- 0.00in -- -- -- -- -- 0.00in -- -- -- -- -- 0.01in -- -- -- -- -- 0.07in -- -- -- -- -- 0.00in -- -- -- 0.00in -- 0.00in -- 0.01in 0.00in 0.00in -- -- -- -- -- -- -- -- -- -- -- -- -- --
SNOWFALL 0in -- -- -- -- -- 0in -- -- -- -- -- 0in -- -- -- -- -- 0in -- -- -- -- -- 0in -- -- -- -- -- 0in -- -- -- 0in -- 0in -- 0in 0in 0in -- -- -- -- -- -- -- -- -- -- -- -- -- --
WIND SPEED(MPH) 2 2 2 2 1 1 1 0 1 0 1 1 1 1 1 2 6 6 6 6 6 7 5 2 2 2 1 1 1 1 1 1 1 1 1 2 2 5 2 0 1 1 1 0 0 2 1 0 1 5 1 0 1 5 1
WIND DIR NW NW N NE N NW NW NW W W W SW SW W W W W W W W W W W W W NW NW NW NW NW N N N N NE NE N N N NE NE N NE N SE W N SE S W N S S SW SW
HeatIndex 76 72 70 67 65 63 63 63 63 61 61 61 63 67 70 74 76 77 79 82 82 82 79 76 74 70 68 65 65 63 63 61 61 61 61 70 77 82 77 63 63 81 76 65 65 84 79 67 67 86 79 68 70 87 83
Rain Showers Slight Chance Slight Chance Slight Chance Slight Chance -- -- -- -- -- -- -- -- -- -- -- Slight Chance Slight Chance Chance Chance Chance Chance Chance Chance Slight Chance Slight Chance -- -- -- -- -- -- -- -- -- -- -- -- Slight Chance -- -- -- -- -- -- -- -- Slight Chance -- -- Slight Chance Slight Chance Slight Chance Slight Chance Chance Chance
Thunder Storm Slight Chance Slight Chance Slight Chance -- -- -- -- -- -- -- -- -- -- -- -- -- Slight Chance Slight Chance Chance Chance Chance Chance Chance Slight Chance Slight Chance -- -- -- -- -- -- -- -- -- -- -- -- Slight Chance -- -- -- -- -- -- -- -- Slight Chance -- -- Slight Chance Slight Chance Slight Chance Slight Chance Chance Chance
Fog -- -- -- -- -- -- Patchy Patchy Patchy Patchy Patchy Patchy Patchy Patchy -- -- -- -- -- -- -- -- -- -- -- -- -- -- -- -- -- -- -- -- -- -- -- -- -- -- -- -- -- -- -- -- -- -- -- -- -- -- -- -- --
WIND CHILL -- -- -- -- -- -- -- -- -- -- -- -- -- -- -- -- -- -- -- -- -- -- -- -- -- -- -- -- -- -- -- -- -- -- -- -- -- -- -- -- -- -- -- -- -- -- -- -- -- -- -- -- -- -- --
SPRAY COND
DRY COND
LIVESTOCK HEATSTRESS 72.78 70.26 68.95 66.68 64.97 63.00 63.00 63.00 63.00 60.99 61.00 60.99 62.98 66.82 68.95 71.99 73.26 73.60 75.22 75.00 75.00 75.00 75.22 73.16 72.16 69.14 67.49 65.00 64.97 63.00 62.98 61.00 60.99 61.00 60.99 69.01 73.40 75.87 73.10 62.75 62.84 74.22 72.78 64.76 64.73 76.88 75.00 66.68 66.64 77.01 75.56 67.65 69.57 77.81 75.78

Click on individual weather variable above in left-hand column (ie., TEMP, RH, QPF 12HR) to view state forecast maps






NWS 48 Hr. Forecast Maps,

Regional Hourly Observations For JACKSON County, Kentucky
Issued at 500 PM EDT MON AUG 03 2020
SOUTHEAST KENTUCKY
  
CITY           SKY/WX    TMP DP  RH WIND       PRES   REMARKS
JACKSON        MOSUNNY   84  61  45 VRB3      29.97F                  
LONDON         MOSUNNY   83  60  45 SW6       29.97S                  
SOMERSET       MOSUNNY   84  52  32 W5        29.96S                  
MIDDLESBORO    PTSUNNY   84  66  53 S5        29.97S                  
MONTICELLO     PTCLDY    86  65  49 VRB6      29.97S                  


Current NOWCAST not available:
Nowcasts are not issued routinely during fair weather. Only when
precipitation or other significant weather is occuring in this county will these
forecasts be issued. Currently, there is no short term forecast in effect.


Fire Weather Forecast For JACKSON County, KY
Provided by the National Weather Service:

Issued at: Mon Aug 3 17:05:01 EDT 2020

557 AM EDT Mon Aug 3 2020

                      Today        Tonight      Tue          

Cloud Cover           Pcldy        Pcldy        Pcldy        
Chance precip (%)     30           20           50           
Precip type           tstms        tstms        tstms        
Temp (24H TREND)      86 (+8)      60 (-2)      83           
Rh % (24H TREND)      45 (-11)     100 (+2)     54           
20ftwnd-AM(mph)       Lgt/Var                   Lgt/Var      
20ftwnd-PM(mph)       SW 2-6       Lgt/Var      NW 2-6       
Precip duration       1            1            1            
Precip begin                                                 
Precip end                                                   
Precip amount         0.03         0.01         0.04         
LAL                   3            3            3            
Haines Index (MID)    3                         3            
Mixing hgt(ft-AGL)    5900                      4800         
Transport wnd (mph)   SW  8                     W  8         
Vent rate (kt-ft)     41254                     33803        
ADI Early             27 Fair      2 Very Poor  35 Fair      
ADI Late              34 Fair      3 Very Poor  24 Fair      
Max LVORI Early       6            9            9            
Max LVORI Late        3            9            3            

Remarks...None.


SPC's Fire Weather Web Tool (Excellent!), SPC's Fire Weather Outlooks, NWS Fire Weather WEB, Fire Danger Class Map,
Keetch-Byram Drought Index, ROMAN Web, Haines Index ,
WFAS's 10-hr Dead Fuel Moist., WFAS's 100-hr Dead Fuel Moist., Probablity of Ignition, Visual blackness Map, Palmer Drought Index, HPC's Rainfall Forecast Maps


Hazardous Weather Outlook For JACKSON County, Kentucky
428 AM EDT Mon Aug 3 2020

 DAY ONE  Today and Tonight.

Thunderstorms are possible, mainly during the afternoon and
evening hours.

 DAYS TWO THROUGH SEVEN  Tuesday through Sunday.

Thunderstorms are possible at times from Tuesday through 
Sunday, and will be most prevalent during the afternoon and 
evening hours each day. 

 SPOTTER INFORMATION STATEMENT  

Spotter activation is not anticipated.

Latest JACKSON County, Kentucky Watches, Warnings and Advisories.
Additional Drought Info.: UKAWC Drought Page, Kentucky Drought Watch


7-Day Forecast For JACKSON County, KY

TONIGHT
Partly cloudy with a slight chance of showers and thunderstorms in the evening, then partly cloudy with a slight chance of showers. Mostly cloudy. Patchy fog late. Lows in the lower 60s. Light winds. Chance of rain 20 percent.

TUESDAY
Partly sunny. Patchy fog early. A chance of showers and a slight chance of thunderstorms late in the morning. A chance of showers and thunderstorms in the afternoon. Highs in the lower 80s. Light winds. Chance of rain 40 percent.

TUESDAY NIGHT
Partly cloudy with a 20 percent chance of showers and thunderstorms in the evening, then mostly cloudy. Lows in the lower 60s. Light winds.

WEDNESDAY
Partly sunny. A 20 percent chance of showers and thunderstorms in the afternoon. Highs in the lower 80s. Light winds.

WEDNESDAY NIGHT
Partly cloudy. Patchy fog late. Lows in the lower 60s. Light winds.

THURSDAY
Mostly sunny. Highs in the lower 80s.

THURSDAY NIGHT
Mostly clear. Areas of fog. Lows in the lower 60s.

FRIDAY
Mostly sunny. Highs in the mid 80s.

FRIDAY NIGHT
Mostly clear. Areas of fog. Lows in the mid 60s.

SATURDAY
Mostly sunny. Highs in the upper 80s.

SATURDAY NIGHT
Partly cloudy. Patchy fog. Lows in the mid 60s.

SUNDAY
Partly sunny with a 30 percent chance of showers and thunderstorms. Highs in the upper 80s.

SUNDAY NIGHT
Mostly cloudy with a 30 percent chance of showers and thunderstorms. Patchy fog. Lows in the upper 60s.

MONDAY
Partly sunny with a 40 percent chance of showers and thunderstorms. Highs in the upper 80s.

Ag Weather Center, Department of Biosystems & Agricultural Engineering, University of Kentucky